Location: Deuil
(48.9767°N, 2.3272°E)
Time: 19:05:14
(UTC+00:00)

X-37B - Visible Passes

Search period start: 22 January 2022 00:00
Search period end: 01 February 2022 00:00
Orbit: 334 x 337 km, 45.0° (Epoch: 11 January)

Date Brightness Start Highest point End Pass type
(mag) Time Alt. Az. Time Alt. Az. Time Alt. Az.
28 Jan 2.7 17:57:12 10° S 17:58:38 13° SSE 17:59:29 12° SE visible
29 Jan 2.0 18:16:29 10° SW 18:18:47 22° SSE 18:19:08 21° SSE visible
30 Jan 1.6 18:36:27 10° SW 18:38:45 31° S 18:38:45 31° S visible
31 Jan 2.2 17:21:56 10° SW 17:24:13 22° SSE 17:26:30 10° ESE visible
31 Jan 2.2 18:56:39 10° WSW 18:58:21 27° SW 18:58:21 27° SW visible
